IRIDIUM 74 [-]

Last updated on Thu Jun 15 2017 00:17:54 GMT+0000 (Coordinated Universal Time)

1 25345U 98032D 17162.54796321 -.09071452 -21083-5 -59847-4 0 9992 2 25345 86.4257 226.3531 0170155 339.6866 19.6941 16.25227347 1960

Satellite not in orbit